Regional Weather Roundup
Issued by NWS Grand Forks, ND

Home | Current Version | Previous Version | Graphics & Text | Print | Product List | Glossary On
Versions: 1 2 3 4 5 6 7 8 9 10 11 12 13 14 15 16 17 18 19 20 21 22 23 24 25 26 27 28 29 30 31 32 33 34 35 36 37 38 39 40 41 42 43 44 45 46 47 48 49 50
312
ASUS43 KFGF 200710
RWRFGF
PRAIRIE TO PINES  WEATHER ROUNDUP
NATIONAL WEATHER SERVICE EASTERN NORTH DAKOTA/GRAND FORKS ND
100 AM CST MON FEB 20 2017

 **SATELLITE DATA USED TO AUGMENT SKY COVER AT AUTOMATED STATIONS**
 *****  WEATHER ACROSS EASTERN NORTH DAKOTA  *****

CITY           SKY/WX    TMP DP  RH WIND       PRES   REMARKS
GRAND FORKS    FAIR      41  36  82 SE16      29.58F
GRAND FRKS AFB FAIR      39  39  99 S13       29.58F
DEVILS LAKE    FOG       36  36 100 E3        29.55S VSB 1/4
FARGO          FAIR      52  48  86 SE20G26   29.61S
WAHPETON ARPT  FAIR      48  45  87 SE12      29.65S
$$

 ***** WEATHER ACROSS CENTRAL AND WESTERN NORTH DAKOTA  *****

CITY           SKY/WX    TMP DP  RH WIND       PRES   REMARKS
BISMARCK       MOCLDY    36  34  92 CALM      29.52S
MINOT          MOCLDY    33  31  92 W8        29.55S FOG
JAMESTOWN      FAIR      41  41 100 S8        29.53S FOG
MINOT AFB      FOG       32  32  98 W5        29.56R VSB 3/4
GARRISON         N/A     34  32  92 NW6       29.54R
WILLISTON      CLOUDY    33  32  96 VRB3      29.61S FOG
DICKINSON      CLOUDY    36  34  92 NW10      29.55R
HETTINGER      FAIR      41  34  76 NW13      29.56R
$$

 *****  OTHER AIRPORT OBSERVATIONS IN OUR AREA  *****

CITY           SKY/WX    TMP DP  RH WIND       PRES   REMARKS
WALHALLA       NOT AVBL
GRAFTON AIRPOR FAIR      36  36 100 SE8       29.60F
VALLEY CITY AR FAIR      43  43 100 S13       29.58S
CANDO          NOT AVBL
CAVALIER APRT  CLOUDY    37  36  93 SE6       29.58F
GWINNER        FAIR      45  45 100 SE5       29.60F
SHEYENNE NWR     N/A     50  47  90 S14       29.95
ROLLA          FOG       32  32 100 S5        29.54S VSB 1/4
 ***** THE ABOVE OBSERVATIONS ARE NON NWS ARE NOT QUALITY
       CONTROLLED AND MAY MIS-REPORT RAIN FOR SNOW...
$$

  *****  WEATHER ACROSS NORTHERN MINNESOTA  *****

CITY           SKY/WX    TMP DP  RH WIND       PRES   REMARKS
FLAG ISLAND    MOCLDY    39  30  70 SE8G16    29.73F
WARROAD        FAIR      43  36  75 SE15G21   29.71S
ROSEAU         FAIR      43  36  75 SE15      29.68S
HALLOCK        FAIR      41  37  87 SE18      29.59F
THF RVR FALLS  FAIR      40  37  89 SE14      29.65F
BAUDETTE       FAIR      41  30  65 SE13      29.74F
WASKISH        FAIR      43  34  70 SE14G20   29.75F
CROOKSTON      FAIR      43  39  87 SE15      29.62F
GREENBUSH NDAW   N/A     39  34  81 SE13        N/A
$$
  *****  WEATHER ACROSS CENTRAL AND WEST MINNESOTA  *****

CITY           SKY/WX    TMP DP  RH WIND       PRES   REMARKS
FOSSTON        FAIR      45  39  81 SE12      29.67F
BEMIDJI        FAIR      40  33  78 SE13G18   29.73F
PARK RAPIDS    FAIR      44  37  76 SE14      29.72F
ELBOW LAKE     CLOUDY    51  48  87 SE17G23   29.68F
WADENA         FAIR      45  41  87 SE5       29.73S
DETROIT LAKES  FAIR      45  41  87 SE14      29.70S
MOORHEAD       FAIR      52  46  82 SE20G25   29.63F
FERGUS FALLS   MOCLDY    52  46  82 S17       29.72R
MORRIS MN      FAIR      52  48  87 S17       29.69S
STAPLES        FAIR      46  39  76 SE9       29.76F
$$
  *****  WEATHER ELSEWHERE ACROSS MINNESOTA  *****

CITY           SKY/WX    TMP DP  RH WIND       PRES   REMARKS
DULUTH         FAIR      38  31  76 E12       29.93R
INTRNTL FALLS  FAIR      39  28  64 SE14      29.82F
ELY            FAIR      37  28  70 SE10      29.93F
CLOQUET        FAIR      36  30  80 E7        29.92S
WHEATON        MOCLDY    52  46  82 SE17G25   29.67R
BRAINERD       FAIR      44  36  73 SE7       29.81S
HIBBING        FAIR      38  30  73 SE9       29.88S
ALEXANDRIA     MOCLDY    50  46  86 SE13      29.74S
SAINT CLOUD    FAIR      50  42  74 SE10      29.81S
MINNEAPOLIS    MOCLDY    49  39  68 SE12      29.87S
$$

  *****  WEATHER ACROSS SOUTH DAKOTA  *****

CITY           SKY/WX    TMP DP  RH WIND       PRES   REMARKS
SIOUX FALLS    FAIR      55  51  86 S15       29.71F
BROOKINGS      FAIR      51  48  89 S14       29.69S
WATERTOWN      FAIR      49  46  90 S13       29.65S
HURON          FAIR      53  49  86 SE16      29.60S
SISSETON         N/A     57  50  77 SW25G32   29.62R
ABERDEEN       CLOUDY    53  46  77 SE21G30   29.58F
MITCHELL       FAIR      55  50  83 S16G24    29.63F
PIERRE         FAIR      52  41  66 SE10      29.53F
MOBRIDGE         N/A     44  34  67 E8        29.50F
RAPID CITY     CLOUDY    54  35  48 S6        29.56R
$$

  *****  SOME WEATHER IN NEARBY STATES *****

CITY           SKY/WX    TMP DP  RH WIND       PRES   REMARKS
GLASGOW MT     FAIR      26  25  96 S7        29.62R FOG     WCI  18
GREAT FALLS MT FAIR      33  27  78 SW13      29.67R WCI  24
CHEYENNE WY    CLOUDY    42  17  36 NW24G33   29.76R
SCOTTSBLUFF NE CLOUDY    47  36  65 W14       29.69R
OMAHA NE       CLOUDY    58  52  80 S12       29.80F
DES MOINES IA  CLOUDY    59  47  64 SE10      29.89F
DAVENPORT IA   FAIR      54  48  80 S14       30.02S
CHICAGO IL     MOCLDY    41  32  70 CALM      30.12R
EAU CLAIRE WI  FAIR      49  35  58 SE5       29.95S
LA CROSSE WI   FAIR      52  37  56 SE3       29.98S
$$

  *****  SOME NATIONAL WEATHER *****

CITY           SKY/WX    TMP DP  RH WIND       PRES   REMARKS
LA GUARDIA NY  FAIR      50  33  52 NW14      30.01R
RALEIGH NC     FAIR      51  40  65 CALM      30.09F
ATLANTA GA     FAIR      53  46  77 VRB5      30.15R
NEW ORLEANS LA FAIR      66  65  96 SE9       30.04S
OKLAHOMA CITY  LGT RAIN  58  58 100 S7        29.85R
ALBUQUERQUE NM MOCLDY    42  33  70 SW7       30.01R
SALT LAKE CITY FAIR      41  35  79 SE9       29.91R
LOS ANGELES CA LGT RAIN  55  51  86 SE6       30.17R FOG
BOISE ID       FAIR      41  33  73 SE12      29.78F
SEATTLE WA     FAIR      43  36  76 S8        29.61S
$$

*** WEATHER ACROSS MANITOBA...SASKATCHEWAN AND ONTARIO ***
                ***ONTARIO***

CITY           SKY/WX    TMP DP  RH WIND       PRES   REMARKS
GERALDTON      CLEAR     23  21  93 SE5       30.18R WCI  17
THUNDER BAY    MOCLDY    32  32 100 NE8       30.12F WCI  25
SIOUX LOOKOUT  MOCLDY    37  27  65 SE7       29.92F
TORONTO        CLEAR     36  28  75 N12       30.18R
BIG TROUT LK   CLOUDY    23  21  93 SE8       30.09F WCI  14
PICKLE LAKE    NOT AVBL
DRYDEN         MOCLDY    39  28  65 SE21G26   29.86F
KENORA         MOCLDY    41  28  60 SE13G22   29.77F
$$
                *** MANITOBA***

CITY           SKY/WX    TMP DP  RH WIND       PRES   REMARKS
BRANDON        CLOUDY    34  30  86 E9        29.56S
DAUPHIN        CLOUDY    30  28  93 N7        29.60F WCI  23
ISLAND LAKE    FRZ RAIN  27  23  86 E7        29.91F WCI  19
PILOT MOUND      N/A     34  34 100 S6          N/A
THE PAS        CLOUDY    27  19  74 E6        29.73F WCI  20
THOMPSON       CLOUDY    19  16  86 E5        29.91F WCI  13
WINNIPEG       CLOUDY    39  34  81 SE12      29.60F
LYNN LAKE      PTCLDY    18  16  93 E12       29.83F WCI   5
CHURCHILL      FLURRIES  12   9  85 SE6       30.13F WCI   3
GILLAM         CLOUDY    19  16  86 E7        30.04F WCI  10
$$
                ***SASKATCHEWAN***

CITY           SKY/WX    TMP DP  RH WIND       PRES   REMARKS
ESTEVAN        FRZ DRZL  32  32 100 W10       29.58S VSB 5/8 WCI  24
KINDERSLEY     CLOUDY    32  30  93 W8        29.52R WCI  25
LLOYDMINSTER   FOG       34  34 100 W7        29.49R VSB 5/8
PRINCE ALBERT  FLURRIES  28  25  86 E12G18    29.59F WCI  18
REGINA         CLOUDY    32  32 100 SW7       29.59R
YORKTON        CLOUDY    30  28  93 NE6       29.59F FOG     WCI  24
N. BATTLEFORD  CLOUDY    34 N/A N/A SE7       29.52S HAZE
LA RONGE       SNOWSHWR  25  23  93 E8        29.67F DRFTSNOWWCI  16
SASKATOON      CLOUDY    34  32  93 S9        29.55S
SWIFT CURRENT  PTCLDY    34  30  86 SW10      29.54R
$$
NOTE: THESE ARE AUTOMATED STATIONS WITH LIMITED QUALITY CONTROL
      "FAIR" INDICATES FEW OR NO CLOUDS BELOW 12,000 FEET WITH NO
      SIGNIFICANT WEATHER AND/OR OBSTRUCTIONS TO VISIBILITY.
      SKY/WX - SKY CONDITION AND SIGNIFICANT WEATHER.
      TMP - AIR TEMPERATURE.    DP   - DEWPOINT TEMPERATURE.
      RH  - RELATIVE HUMIDITY.  PRES - PRESSURE.
      HX  - HEAT INDEX.         WCI  - WIND CHILL INDEX.
$




USA.gov is the U.S. government's official web portal to all federal, state and local government web resources and services.